When you browse on this site, cookies collect data to enhance your experience and personalize the content and advertising you see.
Visit our Privacy Policy to learn more. By continuing to use the site, you agree to this use of cookies and data.
  • In Austria
  • List of Countries
  • For 7 days
  • Water Temperature
  • Weather Map
  • News
  • Weather Widgets
  • user-avatar
    Login

    Hourly Weather Rudnya

    Today, 31 May, Sunday

    Time Temperature Precipitation Wind Pressure Humidity
    00:00 +11°C° 0 mm 4 mps 738 mmHg 95%
    01:00 +10°C° 0 mm 4 mps 739 mmHg 96%
    02:00 +10°C° 0 mm 3 mps 739 mmHg 97%
    03:00 +10°C° 0 mm 3 mps 739 mmHg 97%
    04:00 +10°C° 0 mm 3 mps 739 mmHg 97%
    05:00 +10°C° 0 mm 3 mps 740 mmHg 96%
    06:00 +11°C° 0 mm 3 mps 740 mmHg 94%
    07:00 +12°C° 0 mm 3 mps 740 mmHg 91%
    08:00 +13°C° 0 mm 3 mps 741 mmHg 89%
    09:00 +13°C° 0.1 mm 3 mps 741 mmHg 85%
    10:00 +14°C° 0.1 mm 4 mps 742 mmHg 82%
    11:00 +15°C° 0.1 mm 4 mps 742 mmHg 79%
    12:00 +15°C° 0.1 mm 4 mps 742 mmHg 75%
    13:00 +17°C° 0.1 mm 3 mps 742 mmHg 71%
    14:00 +18°C° 0.1 mm 3 mps 743 mmHg 67%
    15:00 +18°C° 0.2 mm 3 mps 743 mmHg 68%
    16:00 +18°C° 0.2 mm 3 mps 743 mmHg 70%
    17:00 +18°C° 0.2 mm 3 mps 743 mmHg 72%
    18:00 +15°C° 0.3 mm 4 mps 744 mmHg 78%
    19:00 +14°C° 0.3 mm 5 mps 744 mmHg 85%
    20:00 +13°C° 0.3 mm 6 mps 745 mmHg 91%
    21:00 +11°C° 0.1 mm 6 mps 745 mmHg 91%
    22:00 +10°C° 0.1 mm 6 mps 745 mmHg 92%
    23:00 +10°C° 0.1 mm 6 mps 745 mmHg 92%

    Tomorrow, 1 June, Monday

    Time Temperature Precipitation Wind Pressure Humidity
    00:00 +9°C° 0.1 mm 5 mps 745 mmHg 92%
    01:00 +9°C° 0.1 mm 5 mps 746 mmHg 92%
    02:00 +8°C° 0.1 mm 5 mps 746 mmHg 93%
    03:00 +7°C° 0 mm 5 mps 746 mmHg 92%
    04:00 +7°C° 0 mm 5 mps 746 mmHg 92%
    05:00 +5°C° 0 mm 6 mps 746 mmHg 91%
    06:00 +7°C° 0 mm 6 mps 746 mmHg 85%
    07:00 +8°C° 0 mm 6 mps 747 mmHg 78%
    08:00 +9°C° 0 mm 7 mps 747 mmHg 72%
    09:00 +10°C° 0 mm 7 mps 747 mmHg 67%
    10:00 +11°C° 0 mm 7 mps 747 mmHg 63%
    11:00 +12°C° 0 mm 7 mps 747 mmHg 59%
    12:00 +12°C° 0.1 mm 7 mps 747 mmHg 58%
    13:00 +12°C° 0.1 mm 7 mps 747 mmHg 57%
    14:00 +13°C° 0.1 mm 6 mps 747 mmHg 56%
    15:00 +13°C° 0.2 mm 6 mps 747 mmHg 59%
    16:00 +13°C° 0.2 mm 6 mps 747 mmHg 62%
    17:00 +11°C° 0.2 mm 6 mps 747 mmHg 65%
    18:00 +10°C° 0.1 mm 5 mps 747 mmHg 71%
    19:00 +9°C° 0.1 mm 5 mps 747 mmHg 78%
    20:00 +7°C° 0.1 mm 4 mps 747 mmHg 84%
    21:00 +7°C° 0 mm 4 mps 746 mmHg 87%
    22:00 +6°C° 0 mm 4 mps 746 mmHg 90%
    23:00 +6°C° 0 mm 4 mps 746 mmHg 94%

    Day after tomorrow, 2 June, Tuesday

    Time Temperature Precipitation Wind Pressure Humidity
    00:00 +6°C° 0.8 mm 4 mps 745 mmHg 93%
    01:00 +6°C° 0.8 mm 5 mps 745 mmHg 93%
    02:00 +6°C° 0.8 mm 5 mps 744 mmHg 93%
    03:00 +6°C° 0.1 mm 5 mps 744 mmHg 93%
    04:00 +6°C° 0.1 mm 5 mps 743 mmHg 93%
    05:00 +6°C° 0.1 mm 5 mps 743 mmHg 93%
    06:00 +7°C° 0.8 mm 6 mps 742 mmHg 93%
    07:00 +7°C° 0.8 mm 6 mps 742 mmHg 94%
    08:00 +7°C° 0.8 mm 6 mps 742 mmHg 94%
    09:00 +7°C° 1 mm 6 mps 741 mmHg 94%
    10:00 +7°C° 1 mm 6 mps 741 mmHg 94%
    11:00 +7°C° 1 mm 6 mps 741 mmHg 95%
    12:00 +7°C° 1 mm 6 mps 740 mmHg 95%
    13:00 +7°C° 1 mm 5 mps 740 mmHg 95%
    14:00 +8°C° 1 mm 5 mps 740 mmHg 95%
    15:00 +8°C° 0.5 mm 4 mps 739 mmHg 95%
    16:00 +8°C° 0.5 mm 4 mps 739 mmHg 95%
    17:00 +9°C° 0.5 mm 3 mps 739 mmHg 95%
    18:00 +9°C° 0.1 mm 3 mps 739 mmHg 95%
    19:00 +9°C° 0.1 mm 2 mps 739 mmHg 96%
    20:00 +9°C° 0.1 mm 2 mps 738 mmHg 96%
    21:00 +9°C° 0 mm 2 mps 738 mmHg 97%
    22:00 +8°C° 0 mm 2 mps 738 mmHg 97%
    23:00 +8°C° 0 mm 2 mps 738 mmHg 98%

    3 June, Wednesday

    Time Temperature Precipitation Wind Pressure Humidity
    00:00 +8°C° 0.1 mm 2 mps 738 mmHg 98%
    01:00 +8°C° 0.1 mm 3 mps 738 mmHg 97%
    02:00 +8°C° 0.1 mm 3 mps 738 mmHg 97%
    03:00 +8°C° 0 mm 3 mps 738 mmHg 97%
    04:00 +8°C° 0 mm 3 mps 738 mmHg 97%
    05:00 +8°C° 0 mm 3 mps 738 mmHg 97%
    06:00 +7°C° 0.1 mm 4 mps 738 mmHg 96%
    07:00 +7°C° 0.1 mm 4 mps 739 mmHg 95%
    08:00 +8°C° 0.1 mm 4 mps 739 mmHg 94%
    09:00 +8°C° 0.4 mm 5 mps 739 mmHg 92%
    10:00 +9°C° 0.4 mm 5 mps 739 mmHg 90%
    11:00 +10°C° 0.4 mm 5 mps 739 mmHg 88%
    12:00 +12°C° 0.6 mm 5 mps 739 mmHg 85%
    13:00 +13°C° 0.6 mm 5 mps 739 mmHg 82%
    14:00 +14°C° 0.6 mm 5 mps 739 mmHg 78%
    15:00 +14°C° 0.7 mm 5 mps 739 mmHg 79%
    16:00 +14°C° 0.7 mm 5 mps 739 mmHg 80%
    17:00 +14°C° 0.7 mm 4 mps 739 mmHg 80%
    18:00 +13°C° 0.5 mm 4 mps 739 mmHg 84%
    19:00 +12°C° 0.5 mm 3 mps 739 mmHg 88%
    20:00 +11°C° 0.5 mm 3 mps 739 mmHg 91%
    21:00 +10°C° 0 mm 3 mps 739 mmHg 93%
    22:00 +9°C° 0 mm 3 mps 739 mmHg 95%
    23:00 +9°C° 0 mm 3 mps 740 mmHg 96%

    4 June, Thursday

    Time Temperature Precipitation Wind Pressure Humidity
    00:00 +8°C° 0 mm 3 mps 740 mmHg 97%
    01:00 +8°C° 0 mm 3 mps 740 mmHg 97%
    02:00 +8°C° 0 mm 3 mps 740 mmHg 98%
    03:00 +8°C° 0 mm 3 mps 740 mmHg 97%
    04:00 +8°C° 0 mm 3 mps 740 mmHg 97%
    05:00 +9°C° 0 mm 3 mps 741 mmHg 97%
    06:00 +9°C° 0 mm 3 mps 741 mmHg 95%
    07:00 +10°C° 0 mm 3 mps 741 mmHg 93%
    08:00 +11°C° 0 mm 3 mps 741 mmHg 91%
    09:00 +11°C° 0.3 mm 3 mps 741 mmHg 90%
    10:00 +11°C° 0.3 mm 3 mps 742 mmHg 90%
    11:00 +12°C° 0.3 mm 3 mps 742 mmHg 89%
    12:00 +12°C° 0.4 mm 3 mps 742 mmHg 88%
    13:00 +12°C° 0.4 mm 3 mps 741 mmHg 86%
    14:00 +13°C° 0.4 mm 3 mps 741 mmHg 84%
    15:00 +13°C° 0.5 mm 3 mps 741 mmHg 83%
    16:00 +14°C° 0.5 mm 3 mps 741 mmHg 82%
    17:00 +14°C° 0.5 mm 3 mps 741 mmHg 80%
    18:00 +13°C° 0.3 mm 3 mps 741 mmHg 85%
    19:00 +12°C° 0.3 mm 3 mps 741 mmHg 89%
    20:00 +12°C° 0.3 mm 2 mps 741 mmHg 93%
    21:00 +10°C° 0 mm 2 mps 741 mmHg 93%
    22:00 +9°C° 0 mm 2 mps 741 mmHg 94%
    23:00 +9°C° 0 mm 2 mps 741 mmHg 94%

    5 June, Friday

    Time Temperature Precipitation Wind Pressure Humidity
    00:00 +8°C° 0 mm 2 mps 741 mmHg 94%
    01:00 +8°C° 0 mm 2 mps 741 mmHg 95%
    02:00 +8°C° 0 mm 2 mps 741 mmHg 96%
    03:00 +8°C° 0 mm 2 mps 741 mmHg 96%
    04:00 +7°C° 0 mm 2 mps 741 mmHg 96%
    05:00 +7°C° 0 mm 2 mps 741 mmHg 97%
    06:00 +9°C° 0 mm 3 mps 741 mmHg 93%
    07:00 +11°C° 0 mm 3 mps 741 mmHg 88%
    08:00 +13°C° 0 mm 3 mps 742 mmHg 84%
    09:00 +14°C° 0 mm 3 mps 742 mmHg 77%
    10:00 +17°C° 0 mm 3 mps 742 mmHg 71%
    11:00 +18°C° 0 mm 3 mps 742 mmHg 64%
    12:00 +19°C° 0.3 mm 3 mps 741 mmHg 65%
    13:00 +19°C° 0.3 mm 3 mps 741 mmHg 66%
    14:00 +19°C° 0.3 mm 4 mps 741 mmHg 67%
    15:00 +20°C° 0.1 mm 3 mps 741 mmHg 66%
    16:00 +20°C° 0.1 mm 3 mps 741 mmHg 65%
    17:00 +20°C° 0.1 mm 3 mps 741 mmHg 64%
    18:00 +18°C° 0.1 mm 2 mps 741 mmHg 71%
    19:00 +17°C° 0.1 mm 2 mps 741 mmHg 79%
    20:00 +15°C° 0.1 mm 1 mps 741 mmHg 86%
    21:00 +14°C° 0 mm 1 mps 742 mmHg 88%
    22:00 +14°C° 0 mm 2 mps 742 mmHg 90%
    23:00 +13°C° 0 mm 2 mps 742 mmHg 92%
    Show more